Weather Roundup
Issued by NWS

Home | Current Version | Previous Version | Text Only | Print | Product List | Glossary On
Versions: 1 2 3 4 5 6 7 8 9 10 11 12 13 14 15 16 17 18 19 20 21 22 23 24 25 26 27 28 29 30 31 32 33 34 35 36 37 38 39 40 41 42 43 44 45 46 47 48 49 50
000
NZUS93 KARX 281859
HRRWXR

CURRENT HOURLY OBSERVATIONS ACROSS
MUCH OF THE UPPER MISSISSIPPI VALLEY
NATIONAL WEATHER SERVICE LA CROSSE WI
200 PM CDT TUE JUL 28 2015


...SOUTHEAST MINNESOTA...


CITY           SKY/WX    TMP DP  RH WIND       PRES   REMARKS
ROCHESTER      PTSUNNY   80  74  81 S14       29.86S
ROCHESTER/MAYO FAIR      80  74  81 S12G18    29.85F
WINONA         CLOUDY    79  72  78 SE5       29.82F
AUSTIN         PTSUNNY   82  73  74 S12       29.86S
ALBERT LEA     PTSUNNY   82  72  69 S10G16    29.86R
DODGE CENTER   PTSUNNY   81  73  78 S14       29.86S
PRESTON        CLOUDY    78  71  79 S14       29.87S
OWATONNA       PTSUNNY   82  72  69 S14       29.85R
FARIBAULT      PTSUNNY   81  73  78 S7        29.84F
$$

...ELSEWHERE IN MINNESOTA...


CITY           SKY/WX    TMP DP  RH WIND       PRES   REMARKS
MINNEAPOLIS    CLOUDY    81  70  69 S13       29.82F
INTNL FALLS    CLOUDY    76  71  85 S8G16     29.67S
DULUTH         PTSUNNY   82  68  62 SW20G29   29.79S
RED WING       CLOUDY    81  72  74 S8        29.82S
REDWOOD FALLS  CLOUDY    83  71  67 SW15      29.80F
MANKATO        PTSUNNY   81  72  74 SW12      29.83S
WORTHINGTON    CLOUDY    73  68  83 SW10      29.88R
FAIRMONT       PTSUNNY   81  68  65 SW10      29.85S
$$

...SOUTHWEST WISCONSIN...


CITY           SKY/WX    TMP DP  RH WIND       PRES   REMARKS
LA CROSSE      CLOUDY    79  72  79 S9        29.85F
PRAIRIE DU CHI CLOUDY    75  71  85 SE3       29.86F
BOSCOBEL       CLOUDY    77  73  87 VRB3      29.85F
LONE ROCK      CLOUDY    79  73  83 SE7       29.89F
PLATTEVILLE    CLOUDY    76  74  96 SE10      29.88F
FORT MC COY    CLOUDY    75  70  85 CALM      29.89R
VIROQUA        FAIR      73  73 100 SE16G23   29.87S
WIS DELLS      CLOUDY    80  68  66 S12       29.91F
$$

...ELSEWHERE IN WISCONSIN...


CITY           SKY/WX    TMP DP  RH WIND       PRES   REMARKS
MILWAUKEE      PTSUNNY   84  65  52 SE15      29.97F
MADISON        CLOUDY    84  70  62 S16       29.90F
GREEN BAY      PTSUNNY   88  61  40 S13       29.92F
EAU CLAIRE     NOT AVBL
BLACK RVR FLS  MOCLDY    76  73  91 S6        29.87R
MEDFORD        PTSUNNY   78  68  71 S16G24    29.90R
WAUSAU         CLOUDY    82  67  60 S17       29.89S
WIS RAPIDS     CLOUDY    82  67  60 S7        29.88S
MARSHFIELD     CLOUDY    78  68  71 S13       29.89R
RICE LAKE      CLOUDY    78  68  71 S10G16    29.86S
$$

...NORTHEAST IOWA...


CITY           SKY/WX    TMP DP  RH WIND       PRES   REMARKS
DECORAH        CLOUDY    75  72  88 VRB6G16   29.86F
MASON CITY     MOSUNNY   77  74  90 S20       29.90R
CHARLES CITY   PTSUNNY   79  73  83 S15       29.88S
OELWEIN        CLOUDY    75  70  83 CALM      29.91R
$$

...ELSEWHERE IN IOWA...


CITY           SKY/WX    TMP DP  RH WIND       PRES   REMARKS
DES MOINES     CLOUDY    85  76  74 SE16      29.87R HX  94
IOWA CITY      CLOUDY    73  71  93 SE14      29.90F
FORT DODGE     CLOUDY    77  70  78 S9        29.92R
$$

...NORTHERN ILLINOIS...


CITY           SKY/WX    TMP DP  RH WIND       PRES   REMARKS
CHICAGO-OHARE  PTSUNNY   89  70  53 SW8       29.96F HX  94
CHICAGO-MIDWAY PTSUNNY   91  69  48 SW3       29.96F HX  96
MOLINE         CLOUDY    78  72  81 E6        29.95F
ROCKFORD       CLOUDY    85  73  67 SW8       29.98F HX  91
PEORIA         CLOUDY    80  71  74 NE14G22   29.97F
$$

NOTE: "FAIR" INDICATES FEW OR NO CLOUDS BELOW 12,000 FEET WITH NO
SIGNIFICANT WEATHER AND/OR OBSTRUCTIONS TO VISIBILITY. WIND
SPEEDS ARE IN MILES-PER-HOUR.



USA.gov is the U.S. government's official web portal to all federal, state and local government web resources and services.